Regional Weather Roundup
Issued by NWS

Home | Current Version | Previous Version | Graphics & Text | Print | Product List | Glossary On
Versions: 1 2 3 4 5 6 7 8 9 10 11 12 13 14 15 16 17 18 19 20 21 22 23 24 25 26 27 28 29 30 31 32 33 34 35 36 37 38 39 40 41 42 43 44 45 46 47 48 49 50
000
ASUS43 KOAX 111302
RWRNE

WEATHER ROUNDUP FOR NEBRASKA
NATIONAL WEATHER SERVICE OMAHA NE
800 AM CDT FRI JUL 11 2014

NOTES: SATELLITE DATA IS BEING USED TO AUGMENT CLOUD COVER ABOVE
       12000 FEET.
       "FAIR" INDICATES FEW OR NO CLOUDS BELOW 12,000 FEET WITH NO
       SIGNIFICANT WEATHER AND/OR OBSTRUCTIONS TO VISIBILITY.

  * THESE STATIONS DO NOT REPORT WEATHER SUCH AS RAIN...SNOW OR FOG.

NEZ001>004-019>022-054>056-111400-
NEBRASKA PANHANDLE

CITY           SKY/WX    TMP DP  RH WIND       PRES   REMARKS
SCOTTSBLUFF    PTSUNNY   66  63  90 CALM      30.04R
ALLIANCE       PTSUNNY   67  63  87 W13       30.03R
CHADRON        PTSUNNY   70  65  84 SW8       29.98R
KIMBALL        MOSUNNY   65  60  86 CALM      30.09R
SIDNEY         PTSUNNY   64  60  87 NW6       30.08R
$$

NEZ057>060-069>072-079>082-111400-
SOUTHWEST NEBRASKA

CITY           SKY/WX    TMP DP  RH WIND       PRES   REMARKS
NORTH PLATTE   LGT RAIN  68  66  93 SE10      29.94F
IMPERIAL       PTSUNNY   70  67  90 SE14      29.98F FOG
LEXINGTON      PTSUNNY   72  69  89 S9        29.97R
MCCOOK         CLOUDY    70  68  93 E8        29.98R FOG
OGALLALA       CLOUDY    66  64  94 NW3       29.99R
$$

NEZ005>010-023>029-035>040-094-111400-
NORTH CENTRAL NEBRASKA

CITY           SKY/WX    TMP DP  RH WIND       PRES   REMARKS
VALENTINE      MOSUNNY   69  65  86 SW3       29.94R
AINSWORTH      MOSUNNY   71  65  79 SE3       29.95R
BROKEN BOW     PTSUNNY   71  69  93 S7        29.96R FOG
O`NEILL        PTSUNNY   70  66  85 SE8       29.95R
ORD            LGT RAIN  69  67  93 SE9       29.92F
THEDFORD       CLOUDY    72  64  77 W5        29.96R
$$

NEZ041-046>049-061>064-073>077-083>087-111400-
SOUTH CENTRAL NEBRASKA

CITY           SKY/WX    TMP DP  RH WIND       PRES   REMARKS
GRAND ISLAND   PTSUNNY   70  66  87 SE8       29.97R
AURORA         CLOUDY    70  69  97 S6        29.98R
HASTINGS       PTSUNNY   72  65  78 S13       29.97S
HEBRON         CLOUDY    73  67  81 CALM      30.01S
HOLDREGE       PTSUNNY   69  67  90 SE9       29.99R
KEARNEY *      CLOUDY    70  66  88 S12       29.96S
YORK           CLOUDY    68  68 100 S8        29.98S
$$

NEZ011>018-030>034-042>045-111400-
NORTHEAST NEBRASKA

CITY           SKY/WX    TMP DP  RH WIND       PRES   REMARKS
NORFOLK        CLOUDY    68  66  93 SE8       29.97R
ALBION         LGT RAIN  67  66  96 S8        29.98R
BLAIR          CLOUDY    70  65  83 NE7       30.03R
FREMONT        CLOUDY    72  64  78 CALM      30.02R
TEKAMAH        LGT RAIN  70  67  90 E6        30.02F FOG
WAYNE          DRIZZLE   69  67  94 S10       29.96F
$$

NEZ050>053-065>068-078-088>093-111400-
SOUTHEAST NEBRASKA

CITY           SKY/WX    TMP DP  RH WIND       PRES   REMARKS
LINCOLN        CLOUDY    72  66  81 S7        29.99F
OMAHA EPPLEY   CLOUDY    71  65  81 NE6       30.02R
BEATRICE       CLOUDY    69  66  90 SW3       30.01R
FALLS CITY     MOSUNNY   72  66  81 S16       29.99S
NEBRASKA CITY  PTSUNNY   69  65  88 S10       30.01R
PLATTSMOUTH    CLOUDY    70  65  85 S7        30.00R
$$

NEZ044-045-051>053-067-111400-
OMAHA AREA

CITY           SKY/WX    TMP DP  RH WIND       PRES   REMARKS
OMAHA EPPLEY   CLOUDY    71  65  81 NE6       30.02R
BLAIR          CLOUDY    70  65  83 NE7       30.03R
FREMONT        CLOUDY    72  64  78 CALM      30.02R
MILLARD        CLOUDY    71  66  84 CALM      30.01R
OFFUTT AFB     CLOUDY    71  70  99 E2        30.02R
PLATTSMOUTH    CLOUDY    70  65  85 S7        30.00R
WAHOO          PTSUNNY   69  66  89 N3        30.00R
$$



USA.gov is the U.S. government's official web portal to all federal, state and local government web resources and services.